Left ArrowRight Arrow

Hourly Observations for June 15, 2024

Temp ( °F °C ) Dew Point ( °F °C ) Humidity (%) Winds ( mph kmh ) Pressure ( in mb ) Visibility ( mi km ) Precip ( " mm )
12:41 am 00:41 Cloudy with Rain 66 19 64 18 94 94 SSW 3 6 29.92 1013 10 16 0.05 1.27
12:56 am 00:56 Cloudy with Rain 67 19.4 65 18.3 93 93 SE 5 7 29.91 1013 8 13 0.08 2.03
1:56 am 01:56 Cloudy with Light Rain 66 18.9 65 18.3 96 96 ENE 9 15 29.84 1011 10 16 0.07 1.78
2:27 am 02:27 Cloudy with Light Rain 66 19 64 18 94 94 ESE 15 24 29.85 1011 10 16 0.01 0.25
2:56 am 02:56 Mostly Cloudy with Light Rain 66 18.9 65 18.3 96 96 SSE 7 11 29.88 1012 10 16 0.01 0.25
3:56 am 03:56 Mostly Cloudy 66 18.9 65 18.3 96 96 SE 6 9 29.87 1012 10 16 0.01 0.25
4:26 am 04:26 Partly Cloudy 66 19 64 18 94 94 SE 8 13 29.85 1011 10 16 0.00 0.00
4:56 am 04:56 Mostly Cloudy 66 18.9 65 18.3 96 96 SE 10 17 29.84 1011 10 16 0.00 0.00
5:06 am 05:06 Mostly Cloudy 66 19 64 18 94 94 SE 10 17 29.83 1010 10 16 0.00 0.00
5:56 am 05:56 Cloudy 66 18.9 65 18.3 96 96 SE 14 22 29.83 1010 10 16 0.01 0.13
6:13 am 06:13 Cloudy with Light Rain 66 19 64 18 94 94 SSE 14 22 29.85 1011 9 14 0.01 0.13
6:56 am 06:56 Cloudy 66 18.9 65 18.3 96 96 SSE 17 28 29.84 1010 10 16 0.05 1.27
7:56 am 07:56 Cloudy 66 18.9 65 18.3 96 96 SE 15 24 29.82 1010 9 14 0.00 0.00
8:05 am 08:05 Cloudy 66 19 64 18 94 94 SE 16 26 29.81 1010 8 13 0.00 0.00
8:56 am 08:56 Cloudy 69 20.6 66 18.9 90 90 SSE 18 30 29.82 1010 10 16 0.00 0.00
9:27 am 09:27 Mostly Cloudy 72 22 68 20 88 88 SSE 14 22 29.78 1009 10 16 0.00 0.00
9:56 am 09:56 Partly Cloudy 74 23.3 68 20 82 82 SSE 17 28 29.80 1009 10 16 0.00 0.00
10:56 am 10:56 Sunny 76 24.4 66 18.9 71 71 SSE 22 35 29.78 1008 10 16 0.00 0.00
11:56 am 11:56 Mostly Sunny 79 26.1 67 19.4 67 67 S 18 30 29.78 1008 10 16 0.00 0.00
12:56 pm 12:56 Sunny 82 27.8 65 18.3 56 56 S 21 33 29.75 1007 10 16 0.00 0.00
1:56 pm 13:56 Sunny 83 28.3 65 18.3 55 55 S 21 33 29.72 1006 10 16 0.00 0.00
2:56 pm 14:56 Sunny 86 30 65 18.3 50 50 S 21 33 29.70 1006 10 16 0.00 0.00
3:56 pm 15:56 Sunny 86 30 64 17.8 48 48 S 23 37 29.69 1005 10 16 0.00 0.00
4:56 pm 16:56 Sunny 88 31.1 65 18.3 47 47 SSW 20 31 29.66 1004 10 16 0.00 0.00
5:56 pm 17:56 Sunny 88 31.1 64 17.8 45 45 S 21 33 29.64 1004 10 16 0.00 0.00
6:56 pm 18:56 Sunny 87 30.6 64 17.8 46 46 SSW 13 20 29.62 1003 10 16 0.00 0.00
7:56 pm 19:56 Sunny 83 28.3 65 18.3 55 55 SSE 14 22 29.62 1003 10 16 0.00 0.00
8:56 pm 20:56 Sunny 78 25.6 66 18.9 67 67 SSE 9 15 29.62 1003 10 16 0.00 0.00
9:56 pm 21:56 Clear 76 24.4 66 18.9 71 71 SSE 10 17 29.64 1004 10 16 0.00 0.00
10:56 pm 22:56 Clear 76 24.4 65 18.3 69 69 SSE 12 19 29.65 1004 10 16 0.00 0.00
11:56 pm 23:56 Clear 73 22.8 66 18.9 79 79 SSE 14 22 29.67 1005 10 16 0.00 0.00

Powered by Vaisala Xweather